Weather History for Oakland, MD

Change the Weather History Date:

Sunday, December 9, 2012

  Actual Average (KMGW) Record (KMGW)
Temperature  
Mean Temperature 40 °F 36 °F  
Max Temperature 42 °F 44 °F 77 °F (1966)
Min Temperature 39 °F 29 °F 6 °F (1958)
Degree Days  
Heating Degree Days 24 29  
Month to date heating degree days 246  
Since 1 July heating degree days 1294  
Cooling Degree Days 0 0  
Month to date cooling degree days 0  
Year to date cooling degree days 814  
Moisture  
Dew Point 42 °F    
Average Humidity 100    
Maximum Humidity 100    
Minimum Humidity 100    
Precipitation  
Precipitation 0.00 in 0.10 in 1.28 in (1973)
Month to date precipitation 0.92  
Year to date precipitation 39.84  
Sea Level Pressure  
Sea Level Pressure 30.02 in    
Wind  
Wind Speed 8 mph (SE)    
Max Wind Speed 18 mph    
Max Gust Speed 25 mph    
T = Trace of Precipitation, MM = Missing Value Source: NWS Daily Summary

Daily Weather History Graph

Daily Weather History Graph

Search for Another Location

Airport:

Trip Planner

Search our weather history database for the weather conditions in past years. The results will help you decide how hot, cold, wet, or windy it might be!

Date:

Astronomy

Dec. 09, 2012 Rise Set
Actual Time 7:26 AM EST 4:53 PM EST
Civil Twilight 6:56 AM EST 5:23 PM EST
Nautical Twilight 6:22 AM EST 5:57 PM EST
Astronomical Twilight 5:50 AM EST 6:29 PM EST
Moon 2:58 AM EST (12/9) 1:58 PM EST (12/9)
Length of Visible Light 10h 26m
Length of Day
9h 26m
Waning Crescent, 19% of the Moon is Illuminated
Dec 9
Waning Crescent
Dec 13
New
Dec 20
First Quarter
Dec 28
Full
Jan 4
Last Quarter

Hourly Weather History & Observations

Time (EST) Temp. Windchill Dew Point Humidity Pressure Visibility Wind Dir Wind Speed Gust Speed Precip Events Conditions
12:05 AM 42.8 °F - 42.8 °F 100% 30.04 in 0.2 mi Calm Calm - N/A Fog Fog
12:25 AM 42.8 °F - 42.8 °F 100% 30.04 in 0.5 mi Calm Calm - N/A Fog Fog
12:45 AM 42.8 °F - 42.8 °F 100% 30.04 in 0.2 mi Calm Calm - N/A Fog Fog
1:05 AM 42.8 °F - 42.8 °F 100% 30.04 in 0.5 mi Calm Calm - N/A Fog Fog
1:30 AM 42.8 °F - 42.8 °F 100% 30.04 in 0.5 mi Calm Calm - N/A Fog Fog
1:50 AM 42.8 °F - 42.8 °F 100% 30.04 in 0.5 mi Calm Calm - N/A Fog Fog
2:10 AM 42.8 °F - 42.8 °F 100% 30.05 in 0.2 mi Calm Calm - N/A Fog Fog
2:55 AM 42.8 °F 40.1 °F 42.8 °F 100% 30.05 in 0.2 mi East 4.6 mph - N/A Fog Fog
3:15 AM 42.8 °F 40.1 °F 42.8 °F 100% 30.04 in 0.5 mi ESE 4.6 mph - N/A Fog Fog
3:35 AM 42.8 °F 40.1 °F 42.8 °F 100% 30.05 in 0.5 mi ESE 4.6 mph - N/A Fog Fog
3:55 AM 42.8 °F 38.6 °F 42.8 °F 100% 30.04 in 0.5 mi East 6.9 mph - N/A Fog Fog
4:20 AM 42.8 °F 41.1 °F 42.8 °F 100% 30.04 in 0.5 mi East 3.5 mph - N/A Fog Fog
4:40 AM 42.8 °F - 42.8 °F 100% 30.05 in 0.5 mi Calm Calm - N/A Fog Fog
5:00 AM 42.8 °F 38.6 °F 42.8 °F 100% 30.05 in 0.2 mi East 6.9 mph - N/A Fog Fog
5:25 AM 42.8 °F 41.1 °F 42.8 °F 100% 30.06 in 0.8 mi East 3.5 mph - N/A   Overcast
5:45 AM 42.8 °F 37.5 °F 42.8 °F 100% 30.06 in 1.0 mi ESE 9.2 mph - N/A   Overcast
6:25 AM 42.8 °F 37.0 °F 42.8 °F 100% 30.07 in 0.8 mi ESE 10.4 mph - N/A   Overcast
6:50 AM 42.8 °F 36.6 °F 42.8 °F 100% 30.07 in 0.2 mi ESE 11.5 mph 16.1 mph N/A Fog Fog
7:10 AM 42.8 °F 35.4 °F 42.8 °F 100% 30.07 in 0.2 mi ESE 15.0 mph - N/A Fog Fog
7:30 AM 42.8 °F 36.2 °F 42.8 °F 100% 30.07 in 0.2 mi ESE 12.7 mph 20.7 mph N/A Fog Fog
7:50 AM 42.8 °F 36.2 °F 42.8 °F 100% 30.08 in 0.2 mi SE 12.7 mph - N/A Fog Fog
8:15 AM 41.0 °F 32.8 °F 41.0 °F 100% 30.08 in 0.2 mi SE 16.1 mph - N/A Fog Fog
8:35 AM 41.0 °F 33.5 °F 41.0 °F 100% 30.09 in 0.2 mi SE 13.8 mph 18.4 mph N/A Fog Fog
8:55 AM 41.0 °F 34.3 °F 41.0 °F 100% 30.09 in 0.2 mi SE 11.5 mph 17.3 mph N/A Fog Fog
9:15 AM 41.0 °F 33.5 °F 41.0 °F 100% 30.09 in 0.2 mi SE 13.8 mph - N/A Fog Fog
9:40 AM 41.0 °F 33.5 °F 41.0 °F 100% 30.10 in 0.2 mi SE 13.8 mph 19.6 mph N/A Fog Fog
10:00 AM 41.0 °F 33.9 °F 41.0 °F 100% 30.11 in 0.2 mi SE 12.7 mph - N/A Fog Fog
10:20 AM 41.0 °F 33.1 °F 41.0 °F 100% 30.10 in 0.2 mi ESE 15.0 mph 19.6 mph N/A Fog Fog
10:40 AM 41.0 °F 32.8 °F 41.0 °F 100% 30.10 in 0.5 mi ESE 16.1 mph - N/A Fog Fog
11:05 AM 41.0 °F 33.1 °F 41.0 °F 100% 30.09 in 0.2 mi ESE 15.0 mph 19.6 mph N/A Fog Fog
11:25 AM 41.0 °F 33.9 °F 41.0 °F 100% 30.08 in 0.2 mi SE 12.7 mph 17.3 mph N/A Fog Fog
11:45 AM 41.0 °F 33.5 °F 41.0 °F 100% 30.08 in 0.2 mi ESE 13.8 mph - N/A Fog Fog
12:05 PM 41.0 °F 32.8 °F 41.0 °F 100% 30.06 in 0.2 mi ESE 16.1 mph 19.6 mph N/A Fog Fog
12:25 PM 41.0 °F 32.8 °F 41.0 °F 100% 30.05 in 0.2 mi ESE 16.1 mph - N/A Fog Fog
12:50 PM 41.0 °F 32.8 °F 41.0 °F 100% 30.04 in 0.2 mi SE 16.1 mph 20.7 mph N/A Fog Fog
1:30 PM 41.0 °F 33.1 °F 41.0 °F 100% 30.03 in 0.2 mi SE 15.0 mph 21.9 mph N/A Fog Fog
2:35 PM 41.0 °F 33.1 °F 41.0 °F 100% 30.00 in 0.2 mi SE 15.0 mph - N/A Fog Fog
2:55 PM 41.0 °F 33.5 °F 41.0 °F 100% 29.99 in 0.2 mi SE 13.8 mph - N/A Fog Fog
3:15 PM 41.0 °F 32.5 °F 41.0 °F 100% 30.00 in 0.2 mi SE 17.3 mph 24.2 mph N/A Fog Fog
3:40 PM 41.0 °F 32.2 °F 41.0 °F 100% 29.99 in 0.2 mi SE 18.4 mph 25.3 mph N/A Fog Fog
4:00 PM 41.0 °F 33.5 °F 41.0 °F 100% 29.99 in 0.2 mi SE 13.8 mph 21.9 mph N/A Fog Fog
4:20 PM 41.0 °F 34.3 °F 41.0 °F 100% 30.00 in 0.2 mi SE 11.5 mph 20.7 mph N/A Fog Fog
5:05 PM 41.0 °F 32.8 °F 41.0 °F 100% 29.99 in 0.2 mi SE 16.1 mph - N/A Fog Fog
5:25 PM 39.2 °F 31.2 °F 39.2 °F 100% 29.99 in 0.2 mi SE 13.8 mph 17.3 mph N/A Fog Fog
5:45 PM 39.2 °F 32.0 °F 39.2 °F 100% 29.99 in 0.2 mi SE 11.5 mph - N/A Fog Fog
6:05 PM 41.0 °F 33.9 °F 41.0 °F 100% 29.98 in 0.5 mi SE 12.7 mph - N/A Fog Fog
6:30 PM 41.0 °F 33.1 °F 41.0 °F 100% 29.98 in 0.8 mi SE 15.0 mph - N/A   Overcast
6:50 PM 41.0 °F 33.9 °F 41.0 °F 100% 29.99 in 0.8 mi SE 12.7 mph 19.6 mph N/A   Overcast
7:10 PM 41.0 °F 33.1 °F 41.0 °F 100% 29.98 in 0.5 mi SE 15.0 mph - N/A Fog Fog
7:30 PM 41.0 °F 33.5 °F 41.0 °F 100% 29.97 in 0.5 mi SE 13.8 mph 20.7 mph N/A Fog Fog
7:55 PM 41.0 °F 33.9 °F 41.0 °F 100% 29.97 in 0.5 mi SE 12.7 mph 18.4 mph N/A Fog Fog
8:15 PM 41.0 °F 33.5 °F 41.0 °F 100% 29.96 in 0.8 mi SE 13.8 mph 17.3 mph N/A   Overcast
8:35 PM 41.0 °F 33.9 °F 41.0 °F 100% 29.95 in 0.5 mi SE 12.7 mph - N/A Fog Fog
8:55 PM 41.0 °F 33.9 °F 41.0 °F 100% 29.93 in 0.2 mi SE 12.7 mph - N/A Fog Fog
9:20 PM 41.0 °F 33.1 °F 41.0 °F 100% 29.92 in 0.2 mi SE 15.0 mph - N/A Fog Fog
9:40 PM 41.0 °F 34.3 °F 41.0 °F 100% 29.92 in 0.2 mi SE 11.5 mph - N/A Fog Fog
10:00 PM 41.0 °F 33.9 °F 41.0 °F 100% 29.91 in 0.2 mi SE 12.7 mph - N/A Fog Fog
10:20 PM 42.8 °F 36.6 °F 42.8 °F 100% 29.90 in 0.2 mi SE 11.5 mph 17.3 mph N/A Fog Fog
10:45 PM 42.8 °F 36.6 °F 42.8 °F 100% 29.89 in 0.2 mi SE 11.5 mph - N/A Fog Fog
11:05 PM 42.8 °F 36.2 °F 42.8 °F 100% 29.88 in 0.2 mi SE 12.7 mph - N/A Fog Fog
11:25 PM 42.8 °F 36.2 °F 42.8 °F 100% 29.86 in 0.2 mi SE 12.7 mph - N/A Fog Fog
11:50 PM 42.8 °F 37.0 °F 42.8 °F 100% 29.85 in 0.2 mi SE 10.4 mph - N/A Fog Fog